, NM

(GMT )
Holloman AFB

Weather History for KHMN - January, 2013

Change the Weather History Date:

Friday, January 11, 2013

  Actual Average Record
Temperature  
Mean Temperature 40 °F -  
Max Temperature 53 °F 54 °F 68 °F (2000)
Min Temperature 25 °F 25 °F 15 °F (2006)
Degree Days  
Heating Degree Days 24    
Moisture  
Dew Point 18 °F    
Average Humidity 34    
Maximum Humidity 47    
Minimum Humidity 23    
Precipitation  
Precipitation 0.00 in - - ()
Sea Level Pressure  
Sea Level Pressure 29.78 in    
Wind  
Wind Speed 16 mph (SW)    
Max Wind Speed 24 mph    
Max Gust Speed 29 mph    
Visibility 10 miles    
Events      
Averages and records for this station are not official NWS values.
T = Trace of Precipitation, MM = Missing Value Source: NWS Daily Summary

Daily Weather History Graph

Daily Weather History Graph

Search for Another Location

Airport or City:

Trip Planner

Search our weather history database for the weather conditions in past years. The results will help you decide how hot, cold, wet, or windy it might be!

Date:

Astronomy

Jan. 11, 2013 Rise Set
Actual Time 7:07 AM MST 5:17 PM MST
Civil Twilight 6:40 AM MST 5:44 PM MST
Nautical Twilight 6:10 AM MST 6:14 PM MST
Astronomical Twilight 5:40 AM MST 6:44 PM MST
Moon 6:45 AM MST (1/11) 5:35 PM MST (1/11)
Length of Visible Light 11h 03m
Length of Day
10h 09m
Waning Crescent, 0% of the Moon is Illuminated
Jan 11
Waning Crescent
Jan 11
New
Jan 18
First Quarter
Jan 26
Full
Feb 3
Last Quarter

Hourly Weather History & Observations

Time (MST) Temp. Windchill Dew Point Humidity Pressure Visibility Wind Dir Wind Speed Gust Speed Precip Events Conditions
12:54 AM 50.0 °F - 30.2 °F 47% 29.79 in 10.0 mi SSE 19.6 mph - N/A   Scattered Clouds
1:58 AM 48.6 °F - 29.3 °F 47% 29.70 in 10.0 mi SSE 17.3 mph - N/A   Clear
2:54 AM 46.4 °F 40.4 °F 26.6 °F 46% 29.79 in 10.0 mi SSE 13.8 mph - N/A   Partly Cloudy
3:58 AM 45.9 °F 38.5 °F 26.1 °F 46% 29.66 in 10.0 mi SSE 18.4 mph - N/A   Clear
4:54 AM 46.4 °F 38.7 °F 26.6 °F 46% 29.73 in 10.0 mi SSE 20.7 mph - N/A   Clear
5:54 AM 46.4 °F 38.5 °F 24.8 °F 43% 29.75 in 10.0 mi SSE 21.9 mph 28.8 mph N/A   Clear
6:58 AM 47.7 °F - 23.9 °F 39% 29.70 in 10.0 mi South 12.7 mph 20.7 mph N/A   Partly Cloudy
7:58 AM 49.1 °F - 20.7 °F 33% 29.72 in 10.0 mi South 10.4 mph - N/A   Clear
8:58 AM 48.9 °F - 21.2 °F 34% 29.77 in 10.0 mi West 18.4 mph 24.2 mph N/A   Clear
9:58 AM 48.4 °F - 26.2 °F 42% 29.79 in 6.0 mi West 20.7 mph 27.6 mph N/A   Haze
10:58 AM 46.6 °F - 22.5 °F 39% 29.86 in 10.0 mi West 23.0 mph 28.8 mph N/A   Clear
11:58 AM 48.9 °F - 20.8 °F 33% 29.84 in 9.0 mi WSW 24.2 mph - N/A   Clear
12:58 PM 48.6 °F - 18.7 °F 31% 29.82 in 10.0 mi WSW 17.3 mph - N/A   Scattered Clouds
1:58 PM 51.8 °F - 19.0 °F 28% 29.72 in 10.0 mi WSW 9.2 mph - N/A   Partly Cloudy
2:58 PM 53.2 °F - 18.0 °F 25% 29.80 in 10.0 mi West 15.0 mph 21.9 mph N/A   Clear
3:18 PM 51.8 °F - 17.6 °F 26% 29.81 in 10.0 mi SW 19.6 mph 21.9 mph N/A   Clear
3:27 PM 51.8 °F - 17.6 °F 26% 29.81 in 9.0 mi West 15.0 mph 27.6 mph N/A   Clear
3:58 PM 51.1 °F - 14.7 °F 24% 29.73 in 10.0 mi West 16.1 mph 21.9 mph N/A   Clear
4:58 PM 48.9 °F - 11.8 °F 23% 29.83 in 10.0 mi WSW 13.8 mph - N/A   Clear
5:58 PM 43.5 °F 37.9 °F 10.0 °F 26% 29.78 in 10.0 mi West 10.4 mph - N/A   Clear
6:58 PM 42.6 °F 38.4 °F 7.3 °F 23% 29.79 in 10.0 mi West 6.9 mph - N/A   Clear
7:58 PM 39.2 °F 34.2 °F 5.7 °F 25% 29.78 in 10.0 mi SSW 6.9 mph - N/A   Clear
8:58 PM 37.8 °F 33.3 °F 5.4 °F 26% 29.80 in 10.0 mi South 5.8 mph - N/A   Clear
9:58 PM 34.0 °F 31.0 °F 4.6 °F 29% 29.79 in 10.0 mi NE 3.5 mph - N/A   Clear
10:58 PM 28.4 °F 19.7 °F 2.8 °F 34% 29.81 in 10.0 mi North 9.2 mph - N/A   Clear
11:58 PM 25.9 °F 17.4 °F 3.0 °F 38% 29.81 in 10.0 mi North 8.1 mph - N/A   Clear